Location: Unspecified
(0.0000°N, 0.0000°E)
Time: 20:48:56
(UTC+00:00)

SR - All Passes

Search period start: 26 April 2018 00:00
Search period end: 06 May 2018 00:00
Orbit: 578 x 879 km, 66.7° (Epoch: 25 April)

Date Brightness Start Highest point End Pass type
(mag) Time Alt. Az. Time Alt. Az. Time Alt. Az.
26 Apr - 09:03:20 10° SSE 09:06:31 21° ESE 09:09:41 10° ENE daylight
26 Apr - 10:46:02 10° WSW 10:48:15 14° WNW 10:50:29 10° NW daylight
26 Apr - 21:26:54 10° NNW 21:32:45 70° ENE 21:38:34 10° SSE night (unlit)
27 Apr - 09:54:48 10° SW 09:58:47 41° WNW 10:02:49 10° N daylight
27 Apr - 20:38:14 10° N 20:43:16 29° ENE 20:48:16 10° SE visible
27 Apr - 22:20:37 10° WNW 22:25:08 23° WSW 22:29:38 10° SSW night (unlit)
28 Apr - 09:05:12 10° S 09:09:21 58° ESE 09:13:32 10° NNE daylight
28 Apr - 19:51:34 10° NE 19:53:45 12° ENE 19:55:55 10° E visible
28 Apr - 21:29:56 10° NNW 21:35:39 54° WSW 21:41:21 10° S visible
29 Apr - 08:16:55 10° SSE 08:19:55 19° ESE 08:22:55 10° ENE daylight
29 Apr - 09:59:10 10° WSW 10:01:40 15° WNW 10:04:10 10° NNW daylight
29 Apr - 20:40:21 10° N 20:46:12 65° ENE 20:51:59 10° SSE visible
30 Apr - 09:08:09 10° SW 09:12:11 46° WNW 09:16:17 10° N daylight
30 Apr - 19:51:48 10° NNE 19:56:43 27° ENE 20:01:36 10° SE visible
30 Apr - 21:33:54 10° WNW 21:38:35 24° WSW 21:43:13 10° SSW visible
01 May - 08:18:39 10° S 08:22:45 53° ESE 08:26:54 10° NNE daylight
01 May - 19:05:35 10° NE 19:07:11 11° ENE 19:08:46 10° E visible
01 May - 20:43:20 10° NNW 20:49:07 58° WSW 20:54:49 10° S visible
02 May - 07:30:30 10° SSE 07:33:19 17° ESE 07:36:09 10° ENE daylight
02 May - 09:12:20 10° WSW 09:15:03 17° WNW 09:17:49 10° NNW daylight
02 May - 19:53:50 10° N 19:59:39 61° ENE 20:05:23 10° SSE visible
02 May - 21:40:41 10° WSW 21:41:31 10° WSW 21:42:20 10° WSW visible
03 May - 08:21:30 10° SW 08:25:35 50° WNW 08:29:45 10° N daylight
03 May - 19:05:22 10° NNE 19:10:09 26° ENE 19:14:53 10° SE visible
03 May - 20:47:12 10° NW 20:52:02 26° WSW 20:56:47 10° SSW visible
04 May - 07:32:05 10° S 07:36:09 48° ESE 07:40:16 10° NE daylight
04 May - 18:20:07 10° ENE 18:20:36 10° ENE 18:21:05 10° ENE visible
04 May - 19:56:43 10° NNW 20:02:34 62° WSW 20:08:17 10° S visible
05 May - 06:44:06 10° SSE 06:46:43 16° ESE 06:49:21 10° ENE daylight
05 May - 08:25:31 10° WSW 08:28:27 18° WNW 08:31:26 10° NNW daylight
05 May - 19:07:19 10° N 19:13:05 56° ENE 19:18:47 10° SSE visible
05 May - 20:53:16 10° W 20:54:57 11° WSW 20:56:37 10° SW visible
